www.pogodaiklimat.ru

Погода и климат >> Архив погоды >> Индия >> Wardha


ПОГОДА в Wardha

  • Прогноз погоды в Wardha
  • Монитор погоды в Wardha
  • Климат города

АРХИВ ПОГОДЫ в Wardha

Время (UTC), дата Ветер
(напр.,м/с)
 
Видим.   Явления Облачность Т
(С)
Тd
(С)
f
(%)
Тe
(С)
Тes
(С)
Комфортность P
(гПа)
Po
(гПа)
Тmin
(С)
Tmax
(С)
R
(мм)
R24
(мм)
S
(см)
06 17.04 З 1 4000 м ясно +40.4 +17.6 27 +43 +68 опасность
перегрева
1009.1 1009.0
09 17.04 З 2 4000 м 1/0
[Ac trans]
+43.0 +17.2 23 +46 +61 опасность
перегрева
1005.7 1006.0
12 17.04 4000 м 1/0
[Ac trans]
+43.0 +17.5 23 1003.5 1004.0 +44.0
03 18.04 штиль 0 2000 м 1/0
[Ci fib]
+32.3 +25.5 67 +47 +57 опасность
перегрева
1010.4 1010.0
06 18.04 С 2 4000 м 1/0
[Ci fib]
+40.2 +13.1 20 +40 +62 опасность
солнечного
удара
1008.1 1008.0
09 18.04 З 1 4000 м 1/0
[Ac trans]
+43.5 +17.0 22 +46 +64 опасность
перегрева
1004.6 1005.0
12 18.04 штиль 0 4000 м 1/0
[Ac trans]
+41.5 +16.9 24 +44 +45 опасность
перегрева
1003.5 1004.0 +43.6
03 19.04 штиль 0 2000 м ясно +30.4 +11.5 31 +31 +41 жарко 1007.9 1008.0 +23.4
06 19.04 штиль 0 4000 м ясно +41.0 +12.9 19 +41 +69 опасность
перегрева
1005.9 1006.0
09 19.04 штиль 0 4000 м ясно +42.5 +13.8 19 +43 +64 опасность
перегрева
1003.1 1003.0
12 19.04 З 4 4000 м ясно +42.1 +14.1 19 +42 +43 опасность
перегрева
1000.3 1000.0 +44.0
03 20.04 З 1 4000 м ясно +30.0 +13.3 36 +31 +41 жарко 1006.2 1006.0 +25.5
06 20.04 З 2 4000 м ясно +41.4 +18.2 26 +45 +67 опасность
перегрева
1004.5 1005.0
09 20.04 З 1 4000 м 1/0
[Ac trans]
+43.5 +21.2 28 +50 +67 опасность
перегрева
1001.7 1002.0
12 20.04 З 4 10 км 3/0
[Ac trans Ci fib]
+41.9 +20.8 30 +48 +49 опасность
перегрева
1002.1 1002.0 +44.0
03 21.04 штиль 0 4000 м ясно +30.6 +15.0 39 +33 +43 душно 1008.4 1008.0 +26.0
06 21.04 З 2 4000 м ясно +39.5 +17.4 28 +42 +65 опасность
перегрева
1006.5 1007.0
09 21.04 В 1 10 км 1/0
[Ac trans]
+41.4 +20.3 30 +47 +65 опасность
перегрева
1003.3 1003.0
12 21.04 З 2 10 км 1/0
[Ac trans]
+40.7 +21.5 33 +47 +49 опасность
перегрева
1001.9 1002.0 +42.9
03 22.04 штиль 0 4000 м ясно +28.8 +14.2 41 +31 +41 жарко 1008.2 1008.0 +25.6
06 22.04 штиль 0 4000 м ясно +39.5 +22.1 37 +47 +76 опасность
перегрева
1006.8 1007.0
09 22.04 штиль 0 10 км 1/0
[Ac trans]
+41.5 +21.1 31 +48 +68 опасность
перегрева
1003.6 1004.0
12 22.04 штиль 0 10 км 1/0
[Ac trans]
+40.2 +20.2 32 +46 +48 опасность
перегрева
1002.2 1002.0 +43.0
03 23.04 штиль 0 4000 м ясно +32.5 +14.9 35 +35 +45 душно 1008.3 1008.0 +25.5
06 23.04 штиль 0 4000 м ясно +38.4 +23.7 43 +49 +77 опасность
перегрева
1007.8 1008.0
09 23.04 З 1 10 км 3/0
[Ac trans]
+41.4 +24.0 37 +52 +68 опасность
перегрева
1003.7 1004.0
12 23.04 З 1 10 км 3/0
[Ac trans]
+41.4 +25.4 41 +55 +56 опасность
перегрева
1002.7 1003.0 +43.0
03 24.04 С 1 4000 м ясно +33.4 +17.2 38 +37 +46 очень
душно
1008.3 1008.0 +26.1

 

Местоположение метеостанции Wardha (Maharashtra, Индия): широта 20.67 долгота 78.58 высота над уровнем моря 283 м.

В архиве по умолчанию представлена погода в Wardha за последнюю неделю. Архивные данные за месяц целиком и за предыдущие месяцы, начиная с января 2011 года, Вы можете получить, выбрав интересующий диапазон дат из раскрывающегося списка и нажав кнопку "Ввод!".


*Определитесь, кто Вы:
робот инопланетянин человек

Внимание! Время в таблицах - всемирное. Для получения местного времени необходимо прибавить поправку, которая в Wardha равна 5.5 ч.

Смотрите также архив погоды в соседних городах и на ближайших метеорологических станциях:

Погода в Yeotmal (Maharashtra, Индия) (54 км)
Погода в Nagpur (Maharashtra, Индия) (68 км)
Погода в Amravati (Maharashtra, Индия) (88 км)
Погода в Chandrapur (Maharashtra, Индия) (108 км)
Погода в Adilabad (Telangana, Индия) (114 км)
Погода в Bramhapuri (Maharashtra, Индия) (132 км)
Погода в Betul (Madhya Pradesh, Индия) (150 км)
Погода в Akola (Maharashtra, Индия) (161 км)
Погода в Washim (Maharashtra, Индия) (163 км)
Погода в Chhindwara (Madhya Pradesh, Индия) (165 км)

Пояснения к столбцам:

Ветер - указаны скорость ветра в м/с - средняя за 10 мин, порывы в срок и между сроками (в фигурных скобках) и направление, откуда дует ветер: С - северный, СВ - северо-восточный, В - восточный, ЮВ - юго-восточный, Ю - южный, ЮЗ - юго-западный, З - западный, СЗ - северо-западный.
Видимость - горизонтальная дальность видимости в метрах или километрах. При видимости от 1 до 10 км при отсутствии осадков обычно наблюдается дымка, при ухудшении видимости до 1 км и менее - туман. В сухую погоду видимость может ухудшаться дымом, пылью или мглою.
Явления - указаны атмосферные явления, наблюдавшиеся в срок или в последний час перед сроком; фигурными скобками обозначены явления, наблюдавшиеся между сроками (за 1-3 часа до срока); квадратными скобками обозначены град или гололедные отложения с указанием их диаметра в мм.
Облачность - указаны через наклонную черту общая и нижняя облачность в баллах и высота нижней границы облаков в метрах; квадратными скобками обозначены формы облаков: Ci - перистые, Cs - перисто-слоистые, Cc - перисто-кучевые, Ac - высококучевые, As - высокослоистые, Sc - слоисто-кучевые, Ns - слоисто-дождевые, Cu - кучевые, Cb - кучево-дождевые. Подробнее классификацию облаков см. в Атласе облаков (PDF).
T - Температура воздуха - температура, измеренная на высоте 2 м над землей.
Td - Температура точки росы - температура, при понижении до которой содержащийся в воздухе водяной пар достигнет насыщения.
f - Относительная влажность воздуха - влажноcть воздуха, измеренная на высоте 2 м над землей.
Te - Эффективная температура - температура, которую ощущает одетый по сезону человек в тени. Характеристика душности погоды. При расчете учитывается влияние влажности воздуха и скорости ветра на теплоощущения человека.
Tes - Эффективная температура на солнце - температура, которую ощущает человек, с поправкой на солнечный нагрев. Характеристика знойности погоды. Зависит от высоты солнца над горизонтом, облачности и скорости ветра. Ночью, в пасмурную погоду, а также при ветре 12 м/с и более поправка равна нулю.
P - Атмосферное давление - приведенное к уровню моря атмосферное давление.
Po - Атмосферное давление - измеренное на уровне метеостанции атмосферное давление.
Tmin - Минимальная температура - минимум температуры воздуха на высоте 2 м над землей.
Tmax - Максимальная температура - максимум температуры воздуха на высоте 2 м над землей.
R - Количество осадков - Количество выпавших осадков за период времени, мм. При наведении курсора мыши на число - период времени, за который выпало указанное количество осадков.
R24 - Количество осадков - Количество выпавших осадков за 24 часа, мм.
S - Снежный покров - Высота снежного покрова, см. При наведении курсора мыши на число - состояние снежного покрова и степень покрытия местности в баллах.